Total_Precipitation_Accumulation
0.44 0.51 0.48 0.38 0.29 0.25 0.31 0.38 0.45 0.45 0.44 0.50 0.62 0.68 0.60 0.61 0.65 0.64 0.71 0.71 0.61 0.53 0.47 0.45 0.45 0.46 0.51 0.57 0.62 0.64 0.66 0.71 0.81 0.96 1.13 1.33 1.52 1.69
0.55 0.55 0.54 0.49 0.48 0.38 0.35 0.40 0.46 0.48 0.49 0.45 0.59 0.65 0.70 0.60 0.65 0.66 0.69 0.67 0.57 0.52 0.44 0.41 0.41 0.41 0.41 0.42 0.46 0.51 0.53 0.51 0.54 0.62 0.69 0.76 0.84 0.98
0.83 0.73 0.68 0.65 0.64 0.56 0.52 0.50 0.48 0.52 0.60 0.62 0.69 0.81 0.85 0.75 0.73 0.68 0.63 0.64 0.56 0.52 0.45 0.41 0.37 0.35 0.38 0.38 0.38 0.38 0.43 0.43 0.43 0.43 0.46 0.51 0.53 0.56
1.09 1.09 0.96 0.84 0.80 0.70 0.65 0.62 0.58 0.62 0.68 0.79 0.84 0.91 0.91 0.89 0.83 0.67 0.54 0.51 0.55 0.56 0.49 0.45 0.44 0.40 0.37 0.36 0.35 0.34 0.35 0.36 0.39 0.38 0.38 0.40 0.44 0.47
0.91 1.07 1.11 1.08 0.93 0.85 0.78 0.70 0.67 0.65 0.71 0.76 0.83 0.98 1.05 1.04 0.88 0.62 0.51 0.53 0.48 0.58 0.56 0.45 0.40 0.39 0.36 0.32 0.29 0.28 0.27 0.29 0.32 0.34 0.34 0.33 0.33 0.34
0.79 0.83 0.95 1.10 1.06 0.97 0.89 0.84 0.80 0.80 0.82 0.81 0.85 0.99 1.16 1.20 0.98 0.69 0.57 0.54 0.50 0.43 0.46 0.43 0.39 0.37 0.34 0.30 0.28 0.26 0.26 0.27 0.29 0.29 0.31 0.31 0.29 0.27
0.90 0.83 0.80 0.90 0.99 1.00 0.89 0.84 0.86 0.88 0.88 0.86 0.89 1.02 1.16 1.24 1.01 0.78 0.63 0.57 0.52 0.46 0.41 0.36 0.34 0.33 0.35 0.35 0.34 0.30 0.26 0.27 0.29 0.31 0.31 0.29 0.28 0.26
1.13 1.01 0.86 0.78 0.78 0.84 0.87 0.86 0.85 0.85 0.87 0.88 0.90 1.01 1.12 1.15 1.18 1.00 0.78 0.59 0.50 0.47 0.46 0.41 0.37 0.36 0.31 0.28 0.33 0.33 0.29 0.27 0.26 0.27 0.28 0.30 0.29 0.27
1.11 1.04 0.83 0.70 0.73 0.74 0.82 0.82 0.76 0.70 0.69 0.76 0.81 0.90 1.15 1.31 1.42 1.14 0.93 0.80 0.64 0.56 0.52 0.45 0.42 0.39 0.32 0.30 0.37 0.33 0.30 0.28 0.26 0.24 0.25 0.26 0.29 0.30
0.93 0.98 0.91 0.80 0.73 0.72 0.68 0.63 0.60 0.58 0.54 0.53 0.59 0.76 1.00 1.36 1.55 1.52 1.40 1.18 1.00 0.79 0.63 0.51 0.43 0.38 0.36 0.32 0.37 0.37 0.32 0.30 0.29 0.29 0.26 0.24 0.27 0.30
0.81 0.83 0.82 0.74 0.67 0.56 0.56 0.51 0.47 0.47 0.45 0.45 0.50 0.66 0.84 1.09 1.43 1.60 1.53 1.31 1.07 0.82 0.62 0.51 0.43 0.38 0.35 0.32 0.33 0.38 0.35 0.32 0.31 0.32 0.32 0.29 0.28 0.30
0.83 0.85 0.89 0.77 0.62 0.47 0.49 0.54 0.48 0.43 0.44 0.44 0.45 0.50 0.62 0.79 1.10 1.26 1.23 1.17 1.00 0.79 0.55 0.47 0.40 0.43 0.38 0.31 0.27 0.27 0.29 0.33 0.34 0.34 0.33 0.34 0.34 0.26
0.69 0.70 0.79 0.73 0.57 0.42 0.42 0.46 0.42 0.41 0.46 0.45 0.46 0.50 0.60 0.73 0.86 1.07 1.12 1.02 0.89 0.69 0.50 0.49 0.43 0.41 0.40 0.33 0.28 0.25 0.23 0.23 0.25 0.29 0.33 0.35 0.36 0.33
0.68 0.69 0.77 0.76 0.60 0.50 0.43 0.40 0.33 0.29 0.35 0.41 0.41 0.42 0.48 0.59 0.75 0.95 1.12 1.09 0.96 0.83 0.72 0.68 0.61 0.54 0.45 0.35 0.28 0.23 0.23 0.22 0.22 0.23 0.27 0.34 0.35 0.38
0.75 0.92 0.94 0.88 0.73 0.60 0.53 0.50 0.39 0.33 0.36 0.39 0.41 0.39 0.42 0.53 0.76 1.00 1.19 1.30 1.21 1.03 0.92 0.83 0.76 0.69 0.64 0.46 0.31 0.26 0.25 0.25 0.25 0.24 0.25 0.27 0.30 0.34
0.77 0.95 1.06 1.08 1.00 0.87 0.78 0.69 0.53 0.47 0.48 0.48 0.49 0.52 0.57 0.67 0.82 0.91 1.05 1.18 1.22 1.09 0.95 0.88 0.81 0.81 0.74 0.59 0.44 0.32 0.26 0.25 0.26 0.27 0.30 0.30 0.32 0.36
0.70 0.95 1.16 1.27 1.28 1.23 1.09 0.97 0.84 0.72 0.63 0.62 0.64 0.64 0.65 0.71 0.77 0.88 1.01 1.07 1.04 0.90 0.83 0.84 0.85 0.85 0.82 0.76 0.57 0.37 0.30 0.25 0.24 0.31 0.39 0.37 0.35 0.34
0.63 0.89 1.12 1.29 1.34 1.42 1.39 1.28 1.10 0.94 0.84 0.81 0.77 0.75 0.74 0.72 0.76 0.90 1.04 1.09 0.99 0.86 0.76 0.71 0.81 0.89 0.87 0.75 0.60 0.45 0.34 0.29 0.27 0.32 0.40 0.42 0.34 0.32
0.56 0.73 0.84 0.98 1.14 1.31 1.38 1.37 1.20 1.07 1.08 1.04 0.94 0.88 0.88 0.85 0.82 0.89 1.02 1.09 1.08 0.97 0.87 0.80 0.82 0.86 0.81 0.60 0.43 0.41 0.41 0.36 0.37 0.37 0.39 0.41 0.36 0.31
0.44 0.54 0.61 0.73 0.90 1.15 1.30 1.35 1.28 1.16 1.14 1.16 1.12 1.05 1.02 0.97 0.89 0.86 0.96 1.06 1.08 1.05 0.99 0.90 0.78 0.74 0.72 0.63 0.55 0.45 0.42 0.51 0.53 0.49 0.43 0.43 0.42 0.44
0.42 0.47 0.51 0.62 0.77 0.97 1.17 1.32 1.34 1.27 1.20 1.25 1.25 1.15 1.10 1.05 0.94 0.86 0.91 1.01 1.10 1.11 1.00 0.86 0.74 0.79 0.96 1.06 0.87 0.60 0.50 0.51 0.62 0.64 0.63 0.65 0.59 0.57
0.55 0.56 0.60 0.69 0.82 1.04 1.22 1.32 1.35 1.32 1.28 1.30 1.29 1.20 1.14 1.11 1.01 0.96 0.96 1.01 1.03 1.04 1.02 1.00 1.10 1.14 1.13 1.08 0.85 0.64 0.60 0.60 0.67 0.73 0.73 0.70 0.67 0.59
0.63 0.61 0.62 0.68 0.85 1.04 1.19 1.31 1.34 1.34 1.33 1.30 1.26 1.19 1.14 1.13 1.10 1.06 1.01 1.02 1.06 1.10 1.21 1.24 1.23 1.20 1.09 1.03 0.96 0.86 0.78 0.78 0.83 0.80 0.66 0.58 0.55 0.54